Content
SEND FEEDBACK

Daily
Averages
Monthly
Summary
France

TOULOUSE, FRANCE


Home > Europe > France
Elevation: 538 feet     Latitude: 43 33N     Longitude: 001 23E

WEATHER
 
SELECT A DAY
Number of Records: 277,573;   Date Range: 7/1/96 - 4/21/13
 
SHARE

PRINT THIS DATA

[ ← Previous Day ]
WEATHER ALMANAC - JANUARY 10, 2013
[ Next Day → ]
[ °C ]   °F
Weather ElementAverageHighLow
Temperature46.4 °F53.6 °F (4:00 pm)40 °F (1:00 am)
Dewpoint42.5 °F50 °F (4:00 pm)37 °F (1:00 am)
Humidity85.8 %94 % (3:00 pm)77 % (1:00 pm)
Barometer30.17 in30.23 in (7:00 am)30.09 in (6:30 pm)
Wind Speed8 mph19.6 mph (8:30 pm)
Weather ElementAverage
Visibility6.5 mi
Wind DirectionSSW (204.5 °)

Weather ElementTotal
Precipitation---
Heating Degree Days18.2 (Base 65)
Averaged from 51 records on January 10, 2013
WEATHER CONDITIONS BREAKOUT
WIND DIRECTION BREAKOUT
WEATHER BY HOUR - JANUARY 10, 2013
[ °C ]   °F
Local TimeTemperatureDewpointHumidityBarometerVisibilityWind DirectionWind SpeedGust SpeedPrecipitationEventsConditions
12:30 AM41.0 °F37.4 °F87 %30.18 in6.2 miSouth (170°)3.5 mphOvercast
1:00 AM40.0 °F37.0 °F83 %30.21 in4.0 miSouth (180°)2.3 mphClear
1:00 AM41.0 °F37.4 °F87 %30.18 in5.0 miSouth (180°)2.3 mphOvercast
1:30 AM41.0 °F37.4 °F87 %30.18 in5.6 miVariable1.2 mphOvercast
2:00 AM41.0 °F37.4 °F87 %30.18 in5.6 miSSE (150°)1.2 mphOvercast
2:30 AM41.0 °F37.4 °F87 %30.18 in6.2 miVariable2.3 mphOvercast
3:00 AM41.0 °F37.4 °F87 %30.18 in5.6 miSouth (180°)2.3 mphOvercast
3:30 AM41.0 °F39.2 °F93 %30.18 in6.2 miWNW (290°)5.8 mphOvercast
4:00 AM42.8 °F37.4 °F81 %30.18 in6.2 miWNW (290°)11.5 mphOvercast
4:30 AM42.8 °F37.4 °F81 %30.18 in6.2 miWest (280°)11.5 mphOvercast
5:00 AM42.8 °F37.4 °F81 %30.15 in6.2 miWNW (300°)10.4 mphOvercast
5:30 AM42.8 °F37.4 °F81 %30.18 in6.2 miWest (270°)9.2 mphOvercast
6:00 AM42.8 °F37.4 °F81 %30.18 in6.2 miWest (270°)11.5 mphOvercast
6:30 AM42.8 °F37.4 °F81 %30.18 in6.2 miWNW (300°)10.4 mphOvercast
7:00 AM42.0 °F38.0 °F80 %30.23 in12.0 miWNW (290°)5.8 mphClear
7:00 AM42.8 °F37.4 °F81 %30.18 in6.2 miWNW (290°)5.8 mphOvercast
7:30 AM42.8 °F37.4 °F81 %30.21 in6.2 miNW (310°)3.5 mphOvercast
8:00 AM41.0 °F39.2 °F93 %30.21 in6.2 miNW (310°)3.5 mphMostly Cloudy
8:30 AM41.0 °F39.2 °F93 %30.21 in6.2 miVariable2.3 mphOvercast
9:00 AM41.0 °F37.4 °F87 %30.21 in6.2 miCalmOvercast
9:30 AM42.8 °F39.2 °F87 %30.21 in6.2 miCalmOvercast
10:00 AM42.8 °F39.2 °F87 %30.21 in6.2 miCalmOvercast
10:30 AM42.8 °F41.0 °F93 %30.21 in6.2 miSouth (170°)3.5 mphOvercast
11:00 AM46.4 °F42.8 °F87 %30.21 in6.2 miSSE (150°)3.5 mphOvercast
11:30 AM46.4 °F42.8 °F87 %30.18 in6.2 miSouth (170°)3.5 mphOvercast
12:00 PM46.4 °F42.8 °F87 %30.18 in6.2 miVariable2.3 mphOvercast
12:30 PM48.2 °F42.8 °F82 %30.18 in6.2 miSouth (180°)3.5 mphOvercast
1:00 PM48.0 °F43.0 °F77 %30.18 in12.0 miSSW (200°)2.3 mphClear
1:00 PM48.2 °F42.8 °F82 %30.15 in6.2 miVariable2.3 mphOvercast
1:30 PM48.2 °F44.6 °F87 %30.15 in6.2 miSouth (190°)3.5 mphOvercast
2:00 PM48.2 °F44.6 °F87 %30.12 in4.3 miSouth (190°)2.3 mphRainLight Rain
2:30 PM48.2 °F46.4 °F93 %30.12 in5.6 miVariable1.2 mphRainLight Rain
3:00 PM50.0 °F48.2 °F94 %30.12 in6.2 miWSW (240°)5.8 mphMostly Cloudy
3:30 PM51.8 °F48.2 °F88 %30.12 in6.2 miWest (270°)12.7 mphMostly Cloudy
4:00 PM53.6 °F50.0 °F88 %30.12 in6.2 miWest (270°)12.7 mphMostly Cloudy
4:30 PM51.8 °F50.0 °F94 %30.12 in6.2 miWNW (290°)12.7 mphLight Drizzle
5:00 PM51.8 °F50.0 °F94 %30.12 in6.2 miWest (270°)8.1 mphMostly Cloudy
5:30 PM53.6 °F48.2 °F82 %30.12 in6.2 miWest (280°)12.7 mphOvercast
6:00 PM51.8 °F48.2 °F88 %30.12 in6.2 miWest (270°)11.5 mphMostly Cloudy
6:30 PM51.8 °F48.2 °F88 %30.09 in6.2 miWest (260°)10.4 mphMostly Cloudy
7:00 PM52.0 °F47.0 °F79 %30.13 in16.0 miWSW (250°)12.7 mphClear
7:00 PM51.8 °F48.2 °F88 %30.12 in6.2 miWSW (250°)12.7 mph
7:30 PM51.8 °F48.2 °F88 %30.12 in6.2 miWest (270°)17.3 mphRainLight Rain
8:00 PM51.8 °F48.2 °F88 %30.12 in6.2 miWest (260°)13.8 mphOvercast
8:30 PM51.8 °F48.2 °F88 %30.12 in6.2 miWest (270°)19.6 mphMostly Cloudy
9:00 PM51.8 °F46.4 °F82 %30.15 in6.2 miWest (280°)19.6 mphOvercast
9:30 PM50.0 °F44.6 °F82 %30.15 in6.2 miWest (280°)18.4 mphOvercast
10:00 PM50.0 °F44.6 °F82 %30.18 in6.2 miWest (280°)17.3 mphMostly Cloudy
10:30 PM50.0 °F44.6 °F82 %30.18 in6.2 miWest (280°)18.4 mphMostly Cloudy
11:00 PM50.0 °F44.6 °F82 %30.18 in6.2 miWest (280°)18.4 mphMostly Cloudy
11:30 PM50.0 °F44.6 °F82 %30.21 in6.2 miWest (270°)17.3 mphOvercast
Hourly data recorded from LFBF, located miles away from Toulouse, France







STORIES FROM OUR PARTNERS